Weather History for KEWR - December, 2014

Change the Weather History Date:

Friday, December 19, 2014

  Actual Average Record
Temperature  
Mean Temperature 36 °F 35 °F  
Max Temperature 40 °F 42 °F 60 °F (1931)
Min Temperature 31 °F 29 °F 9 °F (1942)
Degree Days  
Heating Degree Days 29 30  
Month to date heating degree days 477 507  
Since 1 July heating degree days 1309 1375  
Cooling Degree Days 0 0  
Month to date cooling degree days 0 0  
Year to date cooling degree days 1175 1192  
Moisture  
Dew Point 22 °F    
Average Humidity 59    
Maximum Humidity 70    
Minimum Humidity 48    
Precipitation  
Precipitation 0.00 in 0.11 in 1.36 in (1934)
Month to date precipitation 3.34 2.40  
Year to date precipitation 47.76 44.84  
Snow  
Snow 0.00 in 0.20 in 13.70 in (1948)
Month to date snowfall 0.3 2.7  
Since 1 July snowfall 1.7 3.1  
Snow Depth 0.00 in    
Sea Level Pressure  
Sea Level Pressure 30.07 in    
Wind  
Wind Speed 13 mph (NW)    
Max Wind Speed 22 mph    
Max Gust Speed 30 mph    
Visibility 10 miles    
Events      
T = Trace of Precipitation, MM = Missing Value Source: NWS Daily Summary

Daily Weather History Graph

Daily Weather History Graph

Search for Another Location

Airport or City:

Trip Planner

Search our weather history database for the weather conditions in past years. The results will help you decide how hot, cold, wet, or windy it might be!

Date:

Astronomy

Dec. 19, 2014 Rise Set
Actual Time 7:16 AM EST 4:31 PM EST
Civil Twilight 6:45 AM EST 5:02 PM EST
Nautical Twilight 6:10 AM EST 5:37 PM EST
Astronomical Twilight 5:37 AM EST 6:10 PM EST
Moon 4:27 AM EST (12/19) 2:52 PM EST (12/19)
Length of Visible Light 10h 17m
Length of Day
9h 15m
Waning Crescent, 7% of the Moon is Illuminated
Dec 19
Waning Crescent
Dec 21
New
Dec 28
First Quarter
Jan 4
Full
Jan 13
Last Quarter

Hourly Weather History & Observations

Time (EST) Temp. Windchill Dew Point Humidity Pressure Visibility Wind Dir Wind Speed Gust Speed Precip Events Conditions
12:51 AM 37.0 °F 30.4 °F 27.0 °F 67% 29.98 in 10.0 mi WNW 9.2 mph - N/A   Mostly Cloudy
1:51 AM 36.0 °F 30.3 °F 26.1 °F 67% 29.98 in 10.0 mi WNW 6.9 mph - N/A   Mostly Cloudy
2:51 AM 36.0 °F 29.6 °F 25.0 °F 64% 29.99 in 10.0 mi WNW 8.1 mph - N/A   Scattered Clouds
3:51 AM 37.0 °F 27.7 °F 25.0 °F 62% 29.99 in 10.0 mi WNW 16.1 mph 21.9 mph N/A   Mostly Cloudy
4:51 AM 37.0 °F 30.4 °F 25.0 °F 62% 29.99 in 10.0 mi WNW 9.2 mph - N/A   Overcast
5:51 AM 37.0 °F 29.3 °F 24.1 °F 59% 30.00 in 10.0 mi NW 11.5 mph 19.6 mph N/A   Overcast
6:51 AM 37.0 °F 27.4 °F 23.0 °F 57% 30.01 in 10.0 mi NNW 17.3 mph 23.0 mph N/A   Overcast
7:51 AM 37.0 °F 29.8 °F 23.0 °F 57% 30.03 in 10.0 mi NW 10.4 mph - N/A   Overcast
8:51 AM 37.0 °F 28.5 °F 23.0 °F 57% 30.05 in 10.0 mi NW 13.8 mph - N/A   Overcast
9:51 AM 36.0 °F 27.1 °F 21.9 °F 57% 30.07 in 10.0 mi NNW 13.8 mph - N/A   Overcast
10:51 AM 36.0 °F 26.7 °F 19.9 °F 52% 30.06 in 10.0 mi NW 15.0 mph - N/A   Mostly Cloudy
11:51 AM 37.9 °F 28.5 °F 19.9 °F 48% 30.05 in 10.0 mi NNW 17.3 mph 23.0 mph N/A   Mostly Cloudy
12:51 PM 37.9 °F 29.6 °F 19.9 °F 48% 30.04 in 10.0 mi WNW 13.8 mph 21.9 mph N/A   Mostly Cloudy
1:51 PM 39.9 °F 31.8 °F 21.0 °F 47% 30.05 in 10.0 mi WNW 15.0 mph 25.3 mph N/A   Mostly Cloudy
2:51 PM 37.0 °F 27.7 °F 21.9 °F 54% 30.06 in 10.0 mi NW 16.1 mph 26.5 mph N/A   Scattered Clouds
3:51 PM 35.1 °F 24.8 °F 21.9 °F 59% 30.09 in 10.0 mi NW 17.3 mph 24.2 mph N/A   Mostly Cloudy
4:51 PM 33.1 °F 23.4 °F 21.0 °F 61% 30.11 in 10.0 mi WNW 13.8 mph 24.2 mph N/A   Mostly Cloudy
5:51 PM 33.1 °F 23.4 °F 21.0 °F 61% 30.13 in 10.0 mi NW 13.8 mph 21.9 mph N/A   Mostly Cloudy
6:51 PM 33.1 °F 23.4 °F 21.0 °F 61% 30.16 in 10.0 mi NW 13.8 mph 24.2 mph N/A   Mostly Cloudy
7:51 PM 32.0 °F 23.0 °F 21.0 °F 64% 30.17 in 10.0 mi NW 11.5 mph 21.9 mph N/A   Mostly Cloudy
8:51 PM 32.0 °F 23.6 °F 21.0 °F 64% 30.16 in 10.0 mi NW 10.4 mph - N/A   Mostly Cloudy
9:51 PM 32.0 °F 23.6 °F 21.0 °F 64% 30.18 in 10.0 mi WNW 10.4 mph - N/A   Mostly Cloudy
10:51 PM 32.0 °F 24.8 °F 21.0 °F 64% 30.19 in 10.0 mi NW 8.1 mph - N/A   Mostly Cloudy
11:51 PM 32.0 °F 24.2 °F 21.0 °F 64% 30.20 in 10.0 mi WNW 9.2 mph - N/A   Overcast